sat.trackr.live / text

‹ back to catalog

JILIN-1 03

NORAD 41914 · 2017-002B

PAYLOAD ACTIVE UNKNOWN

§ Identity

Operator
Country
PRC
Launch date
2017-01-09
Launch site
JSC
Launch vehicle
Mass (kg)
RCS (m²)
0.44

External: N2YO · Heavens-Above · Gunter

§ Orbital elements

Epoch: 2026-09-15T21:44:23.569440Z

Period
93.29 min
Inclination
97.1980°
Eccentricity
0.0005258
Mean motion
15.43583977 rev/d
Perigee alt
432.0 km
Apogee alt
439.1 km
Semi-major
6,813.7 km
B*
2.6299e-4
RAAN
264.8580°
Arg perigee
178.2830°
Mean anomaly
181.8438°
Rev number
53,584

§ Raw data

JILIN-1 031 41914U 17002B   26258.90582835  .00011743  00000+0  26299-3 0  99982 41914  97.1980 264.8580 0005258 178.2830 181.8438 15.43583977535847

JSON: /api/v1/satellites/41914 · /tle

For live sub-satellite position, see the globe view (requires WebGL).

§ Visibility from observer

Set your observer location to see the next 7 days of passes ≥ 10°. The values pass through the URL so the page stays shareable.

No JS? Fill the form by hand. The geolocation button needs JavaScript.

§ Radio — SatNOGS DB

ModeDescriptionDownlinkUplink
BPSK Telemetry 2.267 GHz

1 transmitter · refreshed weekly from db.satnogs.org